User: anonymous   Login
Location: Vanderbilt Beach
(26.2700°N, 81.7900°W)
Time: 09:02:22
(UTC-04:00)
Language:

M-CUBED/EXP-1 PRIME - Orbit

View from above orbital plane
View from above orbital plane
View from above satellite
View from above satellite

Ground track
Ground track

The orbit data is extracted from the following two-line orbital elements,

1 37855U 11061F   24103.93031378  .00121757  00000-0  14472-2 0  9994
2 37855 101.6883 247.9003 0063089 186.2787 173.7669 15.58277345683279
Epoch (UTC): 12 April 2024 22:19:39
Eccentricity: 0.0063089
inclination: 101.6883°
perigee height: 350 km
apogee height: 435 km
right ascension of ascending node: 247.9003°
argument of perigee: 186.2787°
revolutions per day: 15.58277345
mean anomaly at epoch: 173.7669°
orbit number at epoch: 68327

The dashed part of the orbit path shows where the satellite is in the earth's shadow,  

DLR